Theta_e
352 358 360 356 356 356 356 357 357 357 355 355 355 354 356 356 356 356 357 357 359 357 356 356 356 356 355 355 354 353 353 352 350 350 349 348 347 346 346 349 349 342 347
355 359 360 357 355 356 356 356 356 355 356 356 355 354 356 356 356 356 357 357 358 357 357 357 356 356 355 354 353 353 352 352 350 347 349 350 348 346 345 347 349 345 346
354 360 358 358 356 356 355 355 355 356 356 357 354 354 355 356 356 356 356 357 357 356 355 354 354 353 353 352 351 351 351 351 352 354 354 350 347 349 347 346 346 347 346
355 358 358 358 357 355 354 354 355 356 357 356 354 354 355 356 357 357 357 357 355 354 353 352 352 351 350 350 350 349 349 350 352 354 352 354 348 351 349 347 345 344 345
354 359 360 359 357 354 353 353 354 356 356 356 354 354 355 356 356 356 356 355 354 352 351 349 348 348 348 348 349 350 350 351 353 352 354 351 351 351 351 349 347 345 342
353 359 359 359 356 353 353 353 353 353 355 355 353 354 355 355 356 355 354 353 352 350 348 348 347 348 348 349 350 350 351 352 353 349 350 353 353 353 351 349 347 346 343
351 357 356 359 357 352 353 352 353 354 353 353 354 354 354 355 355 354 353 352 351 350 349 349 349 350 350 351 351 351 352 352 351 352 352 354 355 356 353 351 350 348 346
351 355 357 357 357 352 352 353 353 353 353 353 354 354 354 354 354 354 353 352 352 351 350 350 351 351 352 353 353 355 356 352 351 336 350 353 353 355 353 352 351 350 349
352 356 357 358 356 354 352 352 353 353 353 352 353 353 353 353 353 353 353 352 352 351 351 351 352 353 355 356 355 356 356 356 351 348 353 354 355 354 354 354 353 352 351
349 351 353 356 353 353 350 352 352 353 352 352 353 353 353 354 354 354 354 354 352 352 353 353 353 354 356 357 356 357 358 358 350 353 356 354 356 354 355 356 355 353 353
345 347 347 346 344 346 348 352 352 352 352 352 352 353 353 349 351 350 355 357 353 352 353 354 354 356 357 356 357 358 359 351 353 351 354 355 353 353 354 355 355 355 354
336 338 344 345 345 345 345 354 346 349 348 347 348 352 350 348 350 351 355 354 354 354 354 356 357 357 356 351 354 357 355 351 350 351 352 358 355 353 355 356 356 355 353
333 335 338 345 348 345 342 345 345 345 347 349 352 353 353 348 350 349 346 347 351 353 348 349 350 351 352 351 350 352 352 351 351 349 353 359 356 356 357 357 357 353 351
345 346 340 343 347 346 346 344 346 344 345 346 349 355 353 350 350 348 345 344 344 342 343 347 348 350 353 353 352 349 349 352 348 351 354 359 358 357 357 358 356 352 350
336 340 345 349 351 350 348 343 342 343 342 344 346 350 350 348 347 346 345 344 343 341 342 343 347 350 352 351 350 350 347 351 352 352 353 359 357 357 357 356 354 352 350
329 332 335 338 342 346 353 352 347 345 344 343 343 345 349 349 349 345 344 343 342 341 340 339 343 348 350 349 348 350 349 349 354 355 353 355 356 356 357 358 355 350 348
324 326 327 328 331 338 344 349 353 348 345 343 342 346 348 350 351 351 345 343 342 343 341 340 344 348 347 347 350 348 349 349 352 353 353 353 353 354 357 358 356 351 349
321 322 324 323 324 329 335 341 348 351 349 347 345 343 344 346 350 352 345 343 343 344 341 339 339 339 342 343 345 347 348 357 354 354 352 351 354 353 354 357 355 352 350
318 318 319 320 319 322 328 332 343 351 351 349 351 348 349 347 346 348 344 344 353 343 344 343 341 345 343 345 343 346 350 353 354 351 352 352 353 351 352 354 352 352 352
316 317 317 317 318 319 321 324 337 333 336 344 343 343 342 342 345 352 351 352 353 347 346 347 357 352 351 348 344 345 352 350 352 350 351 351 352 352 349 350 347 347 352
315 315 316 316 317 315 315 315 318 319 328 325 328 328 333 328 335 342 344 347 345 353 356 362 355 357 350 353 348 349 349 355 356 351 350 349 350 349 349 350 348 345 347
313 314 315 315 316 315 315 316 316 319 315 316 317 321 324 323 325 326 329 330 335 337 348 354 361 352 352 354 347 344 339 341 349 349 349 347 348 346 344 348 347 349 348
311 312 314 315 316 315 316 316 317 318 319 317 317 317 319 320 323 323 322 323 324 327 329 334 339 346 348 352 356 352 342 334 335 346 344 343 349 344 343 346 348 348 348
310 312 313 315 315 315 316 315 315 312 311 313 315 316 317 320 319 322 318 318 317 319 325 327 326 326 341 345 351 352 351 345 339 339 338 342 344 346 349 343 346 346 347
309 310 312 314 314 314 315 315 312 312 312 313 314 315 320 319 318 317 319 319 318 316 319 324 323 324 325 330 343 347 349 346 348 341 336 332 334 337 342 345 346 347 347
308 309 311 312 312 314 313 313 312 312 312 311 311 311 311 312 313 316 315 315 317 318 317 316 320 320 320 325 330 339 344 339 340 340 336 338 333 331 332 336 341 342 345
Wind_Speed
18 17 15 15 12 11 11 12 12 12 12 12 11 11 11 11 12 12 12 12 12 13 13 13 12 12 12 12 12 12 11 10 9 8 9 11 11 10 8 8 5 14 10
22 17 15 15 13 11 11 11 11 11 11 11 11 11 11 11 12 12 11 11 11 12 12 12 11 11 10 10 10 9 8 6 3 1 5 10 13 9 9 11 16 12 9
19 18 16 15 13 12 11 11 11 11 10 9 11 11 11 11 11 11 10 9 10 10 10 10 10 9 9 8 8 7 7 5 6 8 7 10 13 11 9 9 9 8 8
18 16 14 15 12 11 10 10 10 9 9 9 9 10 10 10 9 9 8 8 8 8 8 9 8 7 7 7 7 6 6 6 10 10 9 11 13 14 11 8 7 6 5
16 16 15 14 11 9 9 8 8 7 7 9 9 9 7 8 7 7 6 6 6 6 6 6 6 6 7 7 7 8 8 10 13 14 10 1 10 13 12 8 8 7 4
17 16 16 14 12 9 10 9 8 6 6 6 6 5 6 5 5 5 4 3 3 4 4 5 5 6 7 7 8 8 9 12 15 12 9 5 2 14 13 8 5 5 5
14 19 14 15 12 9 8 8 7 7 5 6 4 4 3 3 3 3 2 3 3 4 5 5 6 7 8 8 9 10 10 12 13 21 9 6 9 13 12 10 7 6 6
12 17 13 14 14 9 9 7 8 5 5 4 4 3 2 2 1 1 2 3 4 5 5 6 7 8 9 10 10 11 11 12 7 8 20 10 13 12 10 9 8 7 6
13 14 11 11 12 10 7 6 6 7 6 5 3 2 1 2 2 2 3 4 4 6 6 7 8 9 10 11 11 13 14 15 13 11 5 6 10 10 9 9 8 7 7
14 15 14 12 12 12 12 8 6 6 5 4 3 3 3 5 8 8 8 11 6 6 7 8 9 11 12 14 14 15 18 12 13 12 11 6 7 9 8 9 8 7 7
7 6 12 12 8 8 15 11 9 8 7 6 8 9 8 9 11 12 11 10 10 9 9 12 12 13 16 18 18 18 16 7 8 3 5 10 8 8 6 8 8 8 7
9 9 7 6 7 5 3 11 9 11 10 9 9 9 8 9 6 6 2 9 12 12 13 16 16 17 18 13 9 17 8 6 2 3 5 13 10 7 7 9 9 8 7
8 7 8 4 1 7 5 4 5 5 5 5 6 6 7 6 5 7 6 8 9 16 9 12 12 11 15 6 7 4 3 10 3 7 11 12 9 9 8 8 9 7 5
20 13 5 9 2 4 8 4 2 3 3 4 7 8 6 5 7 7 6 7 5 6 7 6 8 5 6 10 10 9 5 6 6 4 7 10 8 7 7 6 8 7 6
14 14 17 9 6 4 4 5 4 4 4 6 4 6 7 7 6 6 7 7 7 8 7 7 8 5 8 11 12 6 10 7 6 5 4 12 9 7 5 8 7 8 9
14 15 16 15 14 13 7 5 7 4 6 5 6 6 6 7 7 7 7 8 8 8 8 8 8 7 8 10 10 9 9 8 3 5 6 5 12 10 11 10 10 9 8
13 14 15 15 15 13 10 10 6 6 6 5 6 6 7 8 8 8 9 8 8 8 10 8 9 9 10 10 11 10 11 7 8 2 9 3 7 13 12 13 13 10 9
14 15 14 13 15 14 12 9 10 5 6 6 7 6 6 8 9 8 9 9 9 8 9 9 9 9 9 9 9 9 8 5 4 7 8 3 5 8 9 12 13 10 9
14 14 15 15 17 15 12 10 8 12 7 11 9 6 13 7 9 8 10 10 8 9 9 9 9 9 9 9 10 10 9 7 5 9 8 7 7 5 9 14 13 11 11
13 14 14 13 16 15 10 11 9 10 10 9 9 10 15 12 15 15 9 9 8 10 11 10 8 9 9 9 11 11 8 8 5 7 9 8 8 10 7 13 10 10 16
13 14 15 15 15 13 11 11 7 10 8 10 11 15 14 16 16 14 11 11 14 14 11 10 9 10 11 11 10 10 10 10 10 9 9 8 10 8 10 13 8 8 10
13 14 15 16 16 13 9 8 7 6 4 5 8 10 14 13 14 11 12 13 14 13 17 12 9 11 11 10 6 10 12 6 9 11 9 8 11 8 11 12 12 16 13
13 13 14 14 14 13 14 9 9 7 8 9 9 9 12 10 10 9 12 12 12 11 10 13 14 15 11 11 13 6 5 11 3 4 6 9 9 10 11 10 13 13 13
12 11 13 13 14 13 15 12 13 10 10 9 10 11 11 11 12 9 4 6 8 9 13 12 12 14 14 13 10 9 10 13 5 5 6 10 6 10 9 10 11 11 11
11 10 11 12 12 13 13 13 11 12 10 10 10 14 11 12 13 13 13 14 9 6 9 13 13 14 11 13 12 9 9 9 11 10 11 7 10 9 10 10 10 9 10
10 10 11 12 13 13 12 13 13 13 12 11 13 12 12 11 11 13 16 15 15 14 11 10 14 15 13 14 14 14 10 8 11 9 12 13 12 10 10 10 11 10 10
Wind_Direction
113 124 127 125 127 127 125 125 122 117 119 119 117 113 107 101 101 103 100 98 99 97 94 88 84 78 73 72 69 66 63 60 64 90 103 104 93 78 61 38 279 84 72
115 132 132 128 131 132 128 127 127 126 126 123 118 115 111 109 106 105 104 104 101 96 90 86 79 73 69 66 63 59 57 50 10 127 136 133 106 94 70 52 50 83 76
124 126 140 133 138 137 132 131 130 128 124 122 122 121 118 112 108 105 102 98 92 86 80 75 67 60 56 51 46 40 32 7 306 289 240 235 107 117 102 86 83 92 89
128 139 136 131 132 135 131 130 131 128 126 117 125 125 121 119 112 104 101 92 84 75 71 67 58 45 37 30 19 13 1 323 287 285 266 267 115 138 127 118 115 112 109
130 115 116 118 119 128 126 127 126 126 131 127 134 130 126 116 110 101 91 83 77 73 68 56 47 27 16 8 357 349 334 308 303 293 261 285 130 137 135 141 149 146 103
105 124 118 121 118 137 139 136 136 138 129 130 134 126 128 115 103 98 91 81 62 44 46 37 24 9 356 346 340 329 317 311 313 261 266 124 83 135 140 148 136 127 126
132 109 131 120 125 139 143 143 145 150 151 142 142 143 131 115 103 86 57 26 10 359 3 6 351 350 337 328 323 312 309 313 300 344 331 132 120 142 149 159 171 170 169
122 118 131 134 137 145 151 154 150 152 152 169 163 160 147 129 99 34 342 330 332 331 336 337 335 331 319 314 308 302 298 288 304 54 271 96 121 136 159 172 188 190 193
108 120 137 139 134 136 139 144 156 161 180 182 180 185 190 245 220 245 273 277 288 296 309 312 313 307 300 293 290 289 282 278 287 193 163 76 110 128 160 189 197 206 211
133 140 141 167 163 168 155 158 170 173 186 192 208 224 236 241 229 224 235 226 239 264 284 285 284 282 277 271 263 258 259 284 257 311 81 67 137 122 163 200 207 216 231
91 90 126 150 140 182 136 152 176 184 197 212 213 216 226 245 192 200 208 151 199 236 251 256 255 259 260 257 251 252 257 225 127 200 106 151 151 135 175 207 218 222 226
113 133 95 53 80 111 133 152 196 178 197 203 208 189 215 242 268 327 113 190 211 226 241 243 243 243 250 258 205 230 235 257 67 265 117 135 127 162 189 215 216 223 227
94 130 122 88 358 300 183 176 193 199 193 199 230 247 237 279 247 229 229 212 214 207 236 209 227 237 237 313 309 235 19 295 85 277 100 116 145 181 204 210 216 216 203
31 27 117 98 99 334 335 195 229 266 213 238 200 200 237 253 237 258 279 297 283 234 253 269 259 283 322 269 279 300 286 6 325 337 121 135 161 189 219 215 195 187 155
34 17 11 32 50 327 257 282 262 267 223 247 232 223 248 257 253 271 276 280 291 297 287 272 272 290 302 279 262 290 311 301 290 288 315 140 155 192 208 183 185 166 154
25 17 12 17 11 357 330 298 302 265 278 240 269 262 236 256 268 271 269 263 267 272 279 282 278 287 306 292 293 276 287 300 19 290 323 158 157 182 180 178 171 173 165
34 20 13 7 8 356 346 342 281 273 294 277 266 247 252 270 268 268 280 285 281 280 280 273 269 259 258 264 257 261 252 248 222 270 269 258 170 193 175 173 168 175 173
30 24 20 17 12 1 360 333 323 304 299 297 297 292 272 261 258 271 274 271 273 276 270 265 268 272 268 272 276 274 286 302 274 261 266 264 194 178 175 179 169 169 179
33 27 23 18 12 4 3 345 307 6 352 7 338 321 343 300 283 272 278 282 282 273 268 268 262 260 267 266 270 257 257 244 263 262 265 282 268 191 181 167 161 168 168
35 34 25 23 18 7 10 357 359 19 354 16 14 7 11 6 5 354 293 267 277 278 269 260 272 285 292 288 284 295 302 289 254 256 262 246 225 216 192 168 166 170 166
40 36 27 26 23 13 17 9 12 355 347 359 355 2 10 359 355 355 344 341 357 318 264 286 288 274 268 270 264 261 254 235 219 246 242 239 263 223 171 167 196 167 179
37 33 28 25 22 21 1 5 3 349 304 7 351 352 11 354 347 349 354 337 343 339 338 318 299 281 273 265 249 287 287 280 201 211 234 230 239 220 218 197 201 174 176
40 34 31 27 21 26 4 11 6 0 349 0 347 350 355 336 345 346 359 341 338 340 328 326 323 311 285 277 272 216 259 254 250 243 198 240 221 220 224 205 206 210 196
43 42 35 29 22 23 20 14 8 2 359 351 350 357 328 344 339 337 4 340 343 330 324 321 321 314 318 290 283 276 271 277 291 268 218 225 256 234 227 230 211 216 214
45 44 43 34 29 26 24 18 7 10 352 349 347 338 339 349 337 338 347 343 335 320 309 304 308 320 313 308 307 294 281 276 261 251 265 207 233 244 236 227 238 214 221
37 37 46 29 31 25 23 22 17 9 354 348 357 342 350 331 338 346 347 332 327 323 320 312 305 302 299 299 294 288 275 254 249 240 248 255 228 224 237 234 229 243 210